sat.trackr.live / text

‹ back to catalog

STARLINK-6377

NORAD 57341 · 2023-099P

PAYLOAD ACTIVE UNKNOWN

§ Identity

Operator
Country
US
Launch date
2023-07-16
Launch site
AFETR
Launch vehicle
Mass (kg)
RCS (m²)

Purposes: comms

External: N2YO · Heavens-Above · Gunter

§ Orbital elements

Epoch: 2026-05-25T04:04:02.373888Z

Period
94.27 min
Inclination
43.0026°
Eccentricity
0.0001904
Mean motion
15.27574455 rev/d
Perigee alt
481.8 km
Apogee alt
484.4 km
Semi-major
6,861.2 km
B*
2.5842e-5
RAAN
183.8437°
Arg perigee
282.7678°
Mean anomaly
77.2961°
Rev number
15,773

§ Raw data

STARLINK-63771 57341U 23099P   26145.16947192  .00000449  00000+0  25842-4 0  99912 57341  43.0026 183.8437 0001904 282.7678  77.2961 15.27574455157735

JSON: /api/v1/satellites/57341 · /tle

For live sub-satellite position, see the globe view (requires WebGL).

§ Visibility from observer

Set your observer location to see the next 7 days of passes ≥ 10°. The values pass through the URL so the page stays shareable.

No JS? Fill the form by hand. The geolocation button needs JavaScript.